Simultaneous Nadir Overpasses (SNOs) Predictions

Prediction of SNOs between METOP-B and TERRA Satellite Orbit:

Table of predicted SNOs for the next 14.0 days since TLE Epoch: 3/22/2013
Index Date (METOP-B) Time (METOP-B) Lat,Lon (METOP-B) SZA (METOP-B ) Date (TERRA) Time (TERRA) Lat,Lon (TERRA) SZA (TERRA ) Distance(km) Time Diff (sec)
1 03/24/2013 13:46:23 -81.28,-159.88 97.78 03/24/2013 13:47:32 -81.28,-160.06 97.78 3.16 69
2 03/24/2013 14:37:03 81.29, 7.63 82.23 03/24/2013 14:36:58 81.28, 7.71 82.23 1.34 5
3 03/27/2013 09:20:45 -81.29, -93.26 98.83 03/27/2013 09:21:47 -81.29, -93.34 98.81 1.52 62
4 03/27/2013 10:11:24 81.29, 74.59 81.22 03/27/2013 10:11:13 81.30, 74.41 81.20 3.05 11
5 03/30/2013 04:55:07 -81.28, -27.08 99.93 03/30/2013 04:56:02 -81.28, -27.10 99.91 0.37 55
6 03/
